TimeCDT,TemperatureF,Dew PointF,Humidity,Sea Level PressureIn,VisibilityMPH,Wind Direction,Wind SpeedMPH,Gust SpeedMPH,PrecipitationIn,Events,Conditions,WindDirDegrees,DateUTC
12:53 AM,48.9,44.1,83,30.25,10.0,NNE,3.5,-,N/A,,Overcast,30,2012-10-08 05:53:00
1:53 AM,48.9,43.0,80,30.25,10.0,North,3.5,-,N/A,,Overcast,10,2012-10-08 06:53:00
2:53 AM,48.9,44.1,83,30.24,10.0,North,3.5,-,N/A,,Overcast,350,2012-10-08 07:53:00
3:53 AM,50.0,43.0,77,30.23,10.0,NNW,3.5,-,N/A,,Overcast,340,2012-10-08 08:53:00
4:53 AM,48.0,43.0,83,30.23,10.0,Calm,Calm,-,N/A,,Scattered Clouds,0,2012-10-08 09:53:00
5:53 AM,46.0,41.0,83,30.25,10.0,NW,3.5,-,N/A,,Clear,310,2012-10-08 10:53:00
6:53 AM,45.0,42.1,90,30.25,10.0,NNW,4.6,-,N/A,,Clear,330,2012-10-08 11:53:00
7:53 AM,45.0,42.1,90,30.27,10.0,NNW,4.6,-,N/A,,Clear,330,2012-10-08 12:53:00
8:53 AM,51.1,41.0,68,30.27,10.0,North,3.5,-,N/A,,Clear,360,2012-10-08 13:53:00
9:53 AM,54.0,37.0,53,30.29,10.0,North,4.6,-,N/A,,Clear,350,2012-10-08 14:53:00
10:53 AM,55.9,39.9,55,30.27,10.0,SE,3.5,-,N/A,,Clear,140,2012-10-08 15:53:00
11:53 AM,59.0,39.9,49,30.26,10.0,Variable,3.5,-,N/A,,Clear,0,2012-10-08 16:53:00
12:53 PM,61.0,39.9,46,30.23,10.0,NE,5.8,-,N/A,,Clear,50,2012-10-08 17:53:00
1:53 PM,63.0,42.1,46,30.20,10.0,East,8.1,-,N/A,,Clear,100,2012-10-08 18:53:00
2:53 PM,64.0,42.1,45,30.16,10.0,Variable,3.5,-,N/A,,Clear,0,2012-10-08 19:53:00
3:53 PM,66.0,42.1,42,30.14,10.0,ESE,8.1,-,N/A,,Clear,110,2012-10-08 20:53:00
4:53 PM,66.0,39.9,38,30.12,10.0,South,5.8,-,N/A,,Clear,170,2012-10-08 21:53:00
5:53 PM,66.0,43.0,43,30.11,10.0,SE,4.6,-,N/A,,Clear,140,2012-10-08 22:53:00
6:53 PM,63.0,46.0,54,30.10,10.0,Calm,Calm,-,N/A,,Clear,0,2012-10-08 23:53:00
7:53 PM,60.1,45.0,57,30.10,10.0,ESE,3.5,-,N/A,,Clear,120,2012-10-09 00:53:00
8:53 PM,57.9,46.9,67,30.11,10.0,SE,6.9,-,N/A,,Clear,140,2012-10-09 01:53:00
9:53 PM,57.0,46.9,69,30.11,10.0,SE,5.8,-,N/A,,Clear,140,2012-10-09 02:53:00
10:53 PM,55.9,48.9,77,30.11,10.0,SSE,8.1,-,N/A,,Clear,160,2012-10-09 03:53:00
11:53 PM,54.0,48.0,80,30.11,10.0,SSE,4.6,-,N/A,,Clear,160,2012-10-09 04:53:00